.
WxDataArchive / Data Records for 2014-07-12
2014-07-11 July 2014 2014-07-13

Data Records for Saturday, 12 July 2014

Time	Temp	Chill	HIndex	Humid	Dewpt	 Wind 	HiWind	WindDir	Rain 	Barom
-----	----	-----	------	-----	-----	------	------	-------	-----	-----
00:00	71.6	71.6	71.6	64	58.8	0	0	---	0.00	30.132 
00:05	71.6	71.6	71.6	65	59.2	0	0	---	0.00	30.132 
00:10	71.6	71.6	71.6	66	59.6	0	0	---	0.00	30.132 
00:15	71.5	71.5	71.5	66	59.5	0	0	---	0.00	30.130 
00:20	71.3	71.3	71.3	66	59.3	0	0	---	0.00	30.130 
00:25	71.1	71.1	71.1	67	59.6	0	0	---	0.00	30.130 
00:30	71.1	71.1	71.1	68	60.0	0	0	---	0.00	30.127 
00:35	71.1	71.1	71.1	70	60.8	0	0	---	0.00	30.127 
00:40	70.9	70.9	70.9	70	60.6	0	0	---	0.00	30.127 
00:45	70.9	70.9	70.9	70	60.6	0	0	---	0.00	30.131 
00:50	70.8	70.8	70.8	70	60.5	0	0	---	0.00	30.131 
00:55	70.8	70.8	70.8	71	60.9	0	0	---	0.00	30.131 
01:00	70.8	70.8	70.8	71	60.9	0	0	---	0.00	30.129 
01:05	70.6	70.6	70.6	72	61.1	0	0	---	0.00	30.129 
01:10	70.6	70.6	70.6	72	61.1	0	0	---	0.00	30.129 
01:15	70.4	70.4	70.4	72	60.9	0	0	---	0.00	30.131 
01:20	70.4	70.4	70.4	72	60.9	0	0	---	0.00	30.131 
01:25	70.4	70.4	70.4	72	60.9	0	0	---	0.00	30.131 
01:30	70.3	70.3	70.3	72	60.8	0	0	---	0.00	30.126 
01:35	70.3	70.3	70.3	72	60.8	0	0	---	0.00	30.126 
01:40	70.3	70.3	70.3	72	60.8	0	0	---	0.00	30.126 
01:45	70.3	70.3	70.3	72	60.8	0	0	---	0.00	30.123 
01:50	70.3	70.3	70.3	73	61.2	0	0	---	0.00	30.123 
01:55	70.1	70.1	70.1	73	61.0	0	0	---	0.00	30.123 
02:00	70.1	70.1	70.1	73	61.0	0	0	---	0.00	30.125 
02:05	70.1	70.1	70.1	74	61.4	0	0	---	0.00	30.125 
02:10	70.1	70.1	70.1	74	61.4	0	0	---	0.00	30.125 
02:15	70.1	70.1	70.1	74	61.4	0	0	---	0.00	30.119 
02:20	69.9	69.9	69.9	75	61.6	0	0	---	0.00	30.119 
02:25	69.9	69.9	69.9	75	61.6	0	0	---	0.00	30.119 
02:30	69.9	69.9	69.9	75	61.6	0	0	---	0.00	30.116 
02:35	69.9	69.9	69.9	75	61.6	0	0	---	0.00	30.116 
02:40	69.8	69.8	69.8	75	61.5	0	0	---	0.00	30.116 
02:45	69.8	69.8	69.8	75	61.5	0	0	---	0.00	30.110 
02:50	69.6	69.6	69.6	76	61.7	0	0	---	0.00	30.110 
02:55	69.6	69.6	69.6	76	61.7	0	0	---	0.00	30.110 
03:00	69.4	69.4	69.4	76	61.5	0	0	---	0.00	30.110 
03:05	69.4	69.4	69.4	76	61.5	0	0	---	0.00	30.110 
03:10	69.4	69.4	69.4	76	61.5	0	0	---	0.00	30.110 
03:15	69.3	69.3	69.3	77	61.8	0	0	---	0.00	30.106 
03:20	69.3	69.3	69.3	77	61.8	0	0	---	0.00	30.106 
03:25	69.3	69.3	69.3	77	61.8	0	0	---	0.00	30.106 
03:30	69.3	69.3	69.3	78	62.1	0	0	---	0.00	30.105 
03:35	69.3	69.3	69.3	78	62.1	0	0	---	0.00	30.105 
03:40	69.1	69.1	69.1	78	61.9	0	0	---	0.00	30.105 
03:45	69.1	69.1	69.1	78	61.9	0	0	---	0.00	30.103 
03:50	69.1	69.1	69.1	79	62.3	0	0	---	0.00	30.103 
03:55	69.1	69.1	69.1	79	62.3	0	0	---	0.00	30.103 
04:00	69.1	69.1	69.1	79	62.3	0	0	---	0.00	30.100 
04:05	68.9	68.9	68.9	80	62.5	0	0	---	0.00	30.100 
04:10	68.9	68.9	68.9	80	62.5	0	0	---	0.00	30.100 
04:15	68.9	68.9	68.9	80	62.5	0	0	---	0.00	30.097 
04:20	68.8	68.8	68.8	81	62.7	0	0	---	0.00	30.097 
04:25	68.8	68.8	68.8	81	62.7	0	0	---	0.00	30.097 
04:30	68.8	68.8	68.8	81	62.7	0	0	---	0.00	30.096 
04:35	68.6	68.6	68.6	81	62.5	0	0	---	0.00	30.096 
04:40	68.6	68.6	68.6	81	62.5	0	0	---	0.00	30.096 
04:45	68.4	68.4	68.4	81	62.3	0	0	---	0.00	30.102 
04:50	68.3	68.3	68.3	81	62.2	0	0	---	0.00	30.102 
04:55	68.3	68.3	68.3	81	62.2	0	0	---	0.00	30.102 
05:00	68.3	68.3	68.3	82	62.6	0	0	---	0.00	30.096 
05:05	68.3	68.3	68.3	82	62.6	0	0	---	0.00	30.096 
05:10	68.3	68.3	68.3	82	62.6	0	0	---	0.00	30.096 
05:15	68.1	68.1	68.1	82	62.4	0	0	---	0.00	30.090 
05:20	67.9	67.9	67.9	82	62.2	0	0	---	0.00	30.090 
05:25	67.9	67.9	67.9	82	62.2	0	0	---	0.00	30.090 
05:30	67.8	67.8	67.8	82	62.1	0	0	---	0.00	30.088 
05:35	67.6	67.6	67.6	82	61.9	0	0	---	0.00	30.088 
05:40	67.6	67.6	67.6	82	61.9	0	0	---	0.00	30.088 
05:45	67.6	67.6	67.6	82	61.9	0	0	---	0.00	30.088 
05:50	67.4	67.4	67.4	82	61.7	0	0	---	0.00	30.088 
05:55	67.3	67.3	67.3	82	61.6	0	0	---	0.00	30.088 
06:00	67.1	67.1	67.1	82	61.4	0	0	---	0.00	30.089 
06:05	66.9	66.9	66.9	83	61.6	0	0	---	0.00	30.089 
06:10	66.9	66.9	66.9	83	61.6	0	0	---	0.00	30.089 
06:15	66.8	66.8	66.8	83	61.5	0	0	---	0.00	30.088 
06:20	66.8	66.8	66.8	83	61.5	0	0	---	0.00	30.088 
06:25	66.6	66.6	66.6	84	61.6	0	0	---	0.00	30.088 
06:30	66.6	66.6	66.6	84	61.6	0	0	---	0.00	30.087 
06:35	66.4	66.4	66.4	84	61.4	0	0	---	0.00	30.087 
06:40	66.4	66.4	66.4	84	61.4	0	0	---	0.00	30.087 
06:45	66.4	66.4	66.4	84	61.4	0	0	---	0.00	30.085 
06:50	66.4	66.4	66.4	84	61.4	0	0	---	0.00	30.085 
06:55	66.6	66.6	66.6	84	61.6	0	0	---	0.00	30.085 
07:00	66.6	66.6	66.6	84	61.6	0	0	---	0.00	30.089 
07:05	66.6	66.6	66.6	84	61.6	0	0	---	0.00	30.089 
07:10	66.6	66.6	66.6	84	61.6	0	1	112	0.00	30.089 
07:15	66.8	66.8	66.8	84	61.8	0	0	---	0.00	30.083 
07:20	66.9	66.9	66.9	83	61.6	0	0	---	0.00	30.083 
07:25	67.3	67.3	67.3	83	62.0	0	0	---	0.00	30.083 
07:30	67.4	67.4	67.4	83	62.0	0	0	---	0.00	30.089 
07:35	67.6	67.6	67.6	82	61.9	0	0	---	0.00	30.089 
07:40	67.8	67.8	67.8	81	61.7	0	0	---	0.00	30.089 
07:45	68.1	68.1	68.1	81	62.0	0	0	---	0.00	30.085 
07:50	68.6	68.6	68.6	80	62.2	0	0	---	0.00	30.085 
07:55	69.1	69.1	69.1	79	62.3	0	1	112	0.00	30.085 
08:00	70.1	70.1	70.1	77	62.5	0	0	---	0.00	30.090 
08:05	71.3	71.3	71.3	75	63.0	0	0	---	0.00	30.090 
08:10	72.1	72.1	72.1	73	63.0	0	0	---	0.00	30.090 
08:15	72.8	72.8	72.8	70	62.4	0	1	112	0.00	30.095 
08:20	73.2	73.2	73.2	69	62.4	0	1	112	0.00	30.095 
08:25	73.5	73.5	73.5	67	61.9	0	1	112	0.00	30.095 
08:30	74.0	74.0	74.0	65	61.5	0	1	112	0.00	30.097 
08:35	74.4	74.4	74.4	65	61.8	0	2	112	0.00	30.097 
08:40	74.9	74.9	74.9	64	61.9	0	1	112	0.00	30.097 
08:45	75.1	75.1	77.3	62	61.2	0	1	112	0.00	30.098 
08:50	75.3	75.3	77.5	62	61.4	0	1	112	0.00	30.098 
08:55	75.4	75.4	77.5	62	61.5	0	1	112	0.00	30.098 
09:00	75.8	75.8	77.8	62	61.8	0	0	---	0.00	30.088 
09:05	76.5	76.5	78.4	62	62.5	0	1	112	0.00	30.088 
09:10	77.4	77.4	79.1	60	62.4	0	2	112	0.00	30.088 
09:15	78.1	78.1	79.7	58	62.1	0	1	112	0.00	30.090 
09:20	78.5	78.5	80.0	58	62.5	0	2	112	0.00	30.090 
09:25	78.1	78.1	79.6	57	61.6	0	1	112	0.00	30.090 
09:30	77.7	77.7	79.4	59	62.2	0	1	112	0.00	30.094 
09:35	77.9	77.9	79.5	59	62.4	0	2	112	0.00	30.094 
09:40	78.3	78.3	79.9	58	62.3	0	2	112	0.00	30.094 
09:45	78.5	78.5	79.9	56	61.5	1	3	112	0.00	30.094 
09:50	78.5	78.5	80.2	60	63.4	0	1	112	0.00	30.094 
09:55	78.5	78.5	80.1	59	63.0	0	2	112	0.00	30.094 
10:00	79.0	79.0	80.5	57	62.4	0	2	112	0.00	30.095 
10:05	79.2	79.2	80.7	57	62.6	0	2	112	0.00	30.095 
10:10	79.6	79.6	81.2	58	63.5	0	1	112	0.00	30.095 
10:15	80.1	80.1	81.4	55	62.4	0	2	112	0.00	30.097 
10:20	80.9	80.9	82.4	56	63.7	0	3	112	0.00	30.097 
10:25	80.9	80.9	82.0	53	62.1	0	2	112	0.00	30.097 
10:30	80.9	80.9	81.9	52	61.6	0	2	112	0.00	30.090 
10:35	81.1	81.1	82.5	55	63.4	0	3	112	0.00	30.090 
10:40	81.4	81.4	82.5	53	62.6	1	4	90	0.00	30.090 
10:45	82.0	82.0	83.1	52	62.6	0	3	112	0.00	30.085 
10:50	82.6	82.6	83.4	50	62.0	1	4	112	0.00	30.085 
10:55	82.4	82.4	83.0	49	61.3	1	3	315	0.00	30.085 
11:00	82.0	82.0	82.8	50	61.5	0	1	315	0.00	30.080 
11:05	82.2	82.2	83.1	51	62.2	0	3	90	0.00	30.080 
11:10	82.4	82.4	83.9	54	64.1	1	3	315	0.00	30.080 
11:15	82.6	82.6	83.8	52	63.2	0	2	22	0.00	30.071 
11:20	83.0	83.0	84.7	54	64.6	0	2	22	0.00	30.071 
11:25	83.2	83.2	84.5	52	63.7	1	4	112	0.00	30.071 
11:30	83.4	83.4	84.8	52	63.9	0	3	112	0.00	30.067 
11:35	83.2	83.2	84.5	52	63.7	1	3	112	0.00	30.067 
11:40	83.4	83.4	84.6	51	63.3	1	3	68	0.00	30.067 
11:45	83.2	83.2	84.3	51	63.2	1	3	292	0.00	30.067 
11:50	83.2	83.2	84.5	52	63.7	1	3	0	0.00	30.067 
11:55	83.4	83.4	85.4	55	65.5	0	1	45	0.00	30.067 
12:00	83.6	83.6	84.8	51	63.5	0	3	45	0.00	30.073 
12:05	83.6	83.6	85.2	53	64.6	0	3	0	0.00	30.073 
12:10	83.6	83.6	85.2	53	64.6	0	2	0	0.00	30.073 
12:15	83.6	83.6	85.2	53	64.6	0	2	315	0.00	30.084 
12:20	83.2	83.2	84.7	53	64.3	1	3	292	0.00	30.084 
12:25	83.4	83.4	85.2	54	65.0	0	2	45	0.00	30.084 
12:30	83.4	83.4	85.2	54	65.0	1	7	90	0.00	30.085 
12:35	83.0	83.0	84.9	55	65.1	1	3	90	0.00	30.085 
12:40	82.6	82.6	84.3	55	64.8	1	2	90	0.00	30.085 
12:45	82.4	82.4	84.2	56	65.1	0	2	90	0.00	30.087 
12:50	82.6	82.6	84.7	57	65.8	0	2	68	0.00	30.087 
12:55	82.4	82.4	84.1	55	64.6	1	4	270	0.00	30.087 
13:00	82.4	82.4	84.4	57	65.6	1	3	292	0.00	30.086 
13:05	82.4	82.4	84.4	57	65.6	2	5	292	0.00	30.086 
13:10	82.6	82.6	84.9	58	66.3	1	3	338	0.00	30.086 
13:15	82.4	82.4	84.4	57	65.6	1	6	292	0.00	30.083 
13:20	82.0	82.0	84.1	58	65.7	1	5	292	0.00	30.083 
13:25	81.8	81.8	84.0	59	66.0	1	4	292	0.00	30.083 
13:30	81.8	81.8	84.3	61	67.0	1	3	292	0.00	30.077 
13:35	81.8	81.8	84.3	61	67.0	1	3	292	0.00	30.077 
13:40	82.0	82.0	84.6	61	67.2	1	3	292	0.00	30.077 
13:45	81.8	81.8	84.3	61	67.0	1	3	292	0.00	30.071 
13:50	81.2	81.2	83.6	62	66.9	2	7	270	0.00	30.071 
13:55	80.5	80.5	82.9	64	67.2	1	4	248	0.00	30.071 
14:00	79.9	79.9	82.2	65	67.1	1	4	248	0.00	30.071 
14:05	79.8	79.8	82.2	66	67.4	1	4	248	0.00	30.071 
14:10	80.1	80.1	82.5	65	67.2	1	4	90	0.00	30.071 
14:15	80.1	80.1	82.5	65	67.2	1	4	270	0.00	30.057 
14:20	80.1	80.1	82.6	66	67.7	1	4	270	0.00	30.057 
14:25	80.1	80.1	82.7	67	68.1	0	2	270	0.00	30.057 
14:30	80.3	80.3	82.9	66	67.9	0	2	45	0.00	30.041 
14:35	80.5	80.5	83.2	66	68.1	0	3	112	0.00	30.041 
14:40	80.5	80.5	83.3	67	68.5	0	2	112	0.00	30.041 
14:45	80.1	80.1	82.5	65	67.2	1	4	248	0.00	30.030 
14:50	79.8	79.8	82.1	65	67.0	1	3	292	0.00	30.030 
14:55	79.6	79.6	82.0	67	67.7	0	1	292	0.00	30.030 
15:00	79.6	79.6	82.0	67	67.7	0	1	292	0.00	30.026 
15:05	79.6	79.6	82.1	68	68.1	0	2	292	0.00	30.026 
15:10	79.4	79.4	81.9	69	68.3	0	2	292	0.00	30.026 
15:15	79.4	79.4	81.7	67	67.5	1	3	270	0.00	30.021 
15:20	79.4	79.4	81.7	67	67.5	1	3	225	0.00	30.021 
15:25	79.4	79.4	81.7	67	67.5	1	3	225	0.00	30.021 
15:30	79.4	79.4	81.7	67	67.5	1	3	225	0.00	30.014 
15:35	79.2	79.2	81.5	68	67.7	1	4	248	0.00	30.014 
15:40	79.4	79.4	81.9	69	68.3	0	3	248	0.00	30.014 
15:45	79.4	79.4	81.9	69	68.3	0	2	248	0.00	30.005 
15:50	79.6	79.6	82.1	68	68.1	0	3	248	0.00	30.005 
15:55	79.8	79.8	82.4	68	68.3	0	3	112	0.00	30.005 
16:00	79.6	79.6	82.0	67	67.7	1	4	68	0.00	29.999 
16:05	79.4	79.4	81.8	68	67.9	1	2	112	0.00	29.999 
16:10	79.0	79.0	81.0	65	66.2	1	3	112	0.00	29.999 
16:15	79.0	79.0	81.2	67	67.1	0	3	112	0.00	29.998 
16:20	79.2	79.2	81.5	68	67.7	0	2	112	0.00	29.998 
16:25	79.4	79.4	81.6	66	67.0	1	4	270	0.00	29.998 
16:30	79.6	79.6	82.0	67	67.7	0	2	292	0.00	29.987 
16:35	79.6	79.6	81.9	66	67.2	1	5	22	0.00	29.987 
16:40	79.6	79.6	82.0	67	67.7	1	4	112	0.00	29.987 
16:45	79.8	79.8	82.3	67	67.8	0	2	112	0.00	29.971 
16:50	79.9	79.9	82.6	68	68.4	0	2	22	0.00	29.971 
16:55	80.1	80.1	82.5	65	67.2	1	3	68	0.00	29.971 
17:00	80.1	80.1	82.6	66	67.7	0	2	45	0.00	29.977 
17:05	80.1	80.1	82.4	64	66.8	1	3	292	0.00	29.977 
17:10	79.9	79.9	82.2	65	67.1	1	3	292	0.00	29.977 
17:15	80.1	80.1	82.6	66	67.7	1	3	270	0.00	29.985 
17:20	80.1	80.1	82.5	65	67.2	1	6	270	0.00	29.985 
17:25	79.8	79.8	82.1	65	67.0	0	3	270	0.00	29.985 
17:30	79.8	79.8	82.2	66	67.4	0	2	270	0.00	29.993 
17:35	79.8	79.8	82.2	66	67.4	0	2	315	0.00	29.993 
17:40	79.8	79.8	82.1	65	67.0	1	3	270	0.00	29.993 
17:45	79.6	79.6	81.8	65	66.8	1	3	270	0.00	29.996 
17:50	79.4	79.4	81.6	66	67.0	0	3	270	0.00	29.996 
17:55	79.4	79.4	81.6	66	67.0	0	2	270	0.00	29.996 
18:00	79.9	79.9	82.2	65	67.1	1	4	292	0.00	29.995 
18:05	80.5	80.5	83.1	65	67.6	1	4	292	0.00	29.995 
18:10	80.7	80.7	83.2	64	67.4	0	3	292	0.00	29.995 
18:15	80.9	80.9	83.7	65	68.0	0	2	338	0.00	29.993 
18:20	80.5	80.5	82.8	63	66.7	1	2	338	0.00	29.993 
18:25	80.3	80.3	82.8	65	67.4	0	2	338	0.00	29.993 
18:30	80.1	80.1	82.5	65	67.2	0	2	338	0.00	29.996 
18:35	79.8	79.8	82.0	64	66.5	0	2	338	0.00	29.996 
18:40	79.4	79.4	81.5	64	66.1	0	2	338	0.00	29.996 
18:45	79.0	79.0	81.0	65	66.2	0	1	338	0.00	29.994 
18:50	78.8	78.8	80.9	67	66.9	0	1	338	0.00	29.994 
18:55	78.8	78.8	80.9	66	66.5	0	1	338	0.00	29.994 
19:00	78.6	78.6	80.6	66	66.3	0	3	338	0.00	29.994 
19:05	78.6	78.6	80.6	66	66.3	0	3	338	0.00	29.994 
19:10	78.5	78.5	80.5	66	66.2	0	2	338	0.00	29.994 
19:15	78.5	78.5	80.5	66	66.2	1	3	338	0.00	29.992 
19:20	78.3	78.3	80.3	67	66.4	0	3	338	0.00	29.992 
19:25	78.3	78.3	80.3	67	66.4	0	3	338	0.00	29.992 
19:30	78.3	78.3	80.2	66	66.0	1	2	338	0.00	29.993 
19:35	78.3	78.3	80.2	66	66.0	0	2	338	0.00	29.993 
19:40	78.3	78.3	80.2	66	66.0	0	2	338	0.00	29.993 
19:45	78.6	78.6	80.7	67	66.7	0	1	338	0.00	29.986 
19:50	78.8	78.8	80.9	67	66.9	0	2	338	0.00	29.986 
19:55	78.8	78.8	80.9	66	66.5	0	2	338	0.00	29.986 
20:00	78.6	78.6	80.7	67	66.7	0	1	338	0.00	29.985 
20:05	78.5	78.5	80.6	68	67.0	0	1	338	0.00	29.985 
20:10	78.3	78.3	80.3	68	66.8	0	1	338	0.00	29.985 
20:15	77.9	77.9	79.9	69	66.9	0	1	338	0.00	29.974 
20:20	77.7	77.7	79.6	69	66.7	0	3	338	0.00	29.974 
20:25	77.6	77.6	79.5	69	66.6	0	2	338	0.00	29.974 
20:30	77.6	77.6	79.5	70	67.0	0	1	338	0.00	29.970 
20:35	77.4	77.4	79.3	70	66.8	0	1	338	0.00	29.970 
20:40	77.4	77.4	79.3	70	66.8	0	0	---	0.00	29.970 
20:45	77.2	77.2	79.0	71	67.0	0	1	338	0.00	29.963 
20:50	77.2	77.2	79.0	71	67.0	0	0	---	0.00	29.963 
20:55	77.2	77.2	79.0	71	67.0	0	1	338	0.00	29.963 
21:00	77.2	77.2	79.0	72	67.5	0	1	338	0.00	29.957 
21:05	77.0	77.0	78.7	72	67.3	0	1	338	0.00	29.957 
21:10	77.0	77.0	78.7	72	67.3	0	1	338	0.00	29.957 
21:15	77.0	77.0	78.7	73	67.7	0	0	---	0.00	29.945 
21:20	76.8	76.8	78.5	73	67.5	0	1	338	0.00	29.945 
21:25	76.7	76.7	78.3	73	67.4	0	3	135	0.00	29.945 
21:30	76.5	76.5	78.1	73	67.2	0	0	---	0.00	29.940 
21:35	76.3	76.3	77.8	74	67.4	0	0	---	0.00	29.940 
21:40	76.1	76.1	77.5	75	67.6	0	1	135	0.00	29.940 
21:45	76.0	76.0	77.4	75	67.5	0	1	135	0.00	29.931 
21:50	76.0	76.0	77.3	76	67.9	0	1	135	0.00	29.931 
21:55	75.8	75.8	77.0	76	67.7	0	0	---	0.00	29.931 
22:00	75.6	75.6	76.7	77	67.9	0	0	---	0.00	29.927 
22:05	75.4	75.4	76.4	77	67.7	0	0	---	0.00	29.927 
22:10	75.3	75.3	76.3	77	67.6	0	0	---	0.00	29.927 
22:15	75.1	75.1	76.0	78	67.8	0	0	---	0.00	29.927 
22:20	74.9	74.9	74.9	78	67.6	0	0	---	0.00	29.927 
22:25	74.9	74.9	74.9	79	67.9	0	1	135	0.00	29.927 
22:30	74.7	74.7	74.7	79	67.7	0	0	---	0.00	29.925 
22:35	74.6	74.6	74.6	80	68.0	0	0	---	0.00	29.925 
22:40	74.6	74.6	74.6	80	68.0	0	0	---	0.00	29.925 
22:45	74.4	74.4	74.4	81	68.2	0	0	---	0.00	29.920 
22:50	74.2	74.2	74.2	81	68.0	0	0	---	0.00	29.920 
22:55	74.2	74.2	74.2	81	68.0	0	0	---	0.00	29.920 
23:00	74.0	74.0	74.0	81	67.8	0	1	135	0.00	29.912 
23:05	74.0	74.0	74.0	81	67.8	0	0	---	0.00	29.912 
23:10	73.9	73.9	73.9	81	67.7	0	0	---	0.00	29.912 
23:15	73.9	73.9	73.9	82	68.0	0	0	---	0.00	29.908 
23:20	73.7	73.7	73.7	82	67.9	0	1	135	0.00	29.908 
23:25	73.7	73.7	73.7	82	67.9	0	1	135	0.00	29.908 
23:30	73.7	73.7	73.7	82	67.9	0	1	135	0.00	29.905 
23:35	73.7	73.7	73.7	82	67.9	0	1	135	0.00	29.905 
23:40	73.7	73.7	73.7	82	67.9	0	3	68	0.00	29.905 
23:45	73.9	73.9	73.9	82	68.0	0	1	68	0.00	29.899 
23:50	73.9	73.9	73.9	82	68.0	0	0	---	0.00	29.899 
23:55	73.9	73.9	73.9	82	68.0	0	1	68	0.00	29.899 

CoCoRaHS
IN-AL-39
A2 Web Hosting
Creative Commons License
GoDaddy
search engine by freefind advanced

loaded 2018-11-19 11:09:30 • last modified 2010-11-18 10:43:29
Privacy PolicyDisclaimer
• wx.awcolley.com is powered by PmWiki v.2002016 •
• all content (unless otherwise noted) © 2018 A W Colley